Location: Newark
(39.9500°N, 8.6833°E)
Time: 06:30:05
(UTC+00:00)

Envisat - Visible Passes

Search period start: 06 December 2019 00:00
Search period end: 16 December 2019 00:00
Orbit: 764 x 766 km, 98.1° (Epoch: 05 December)

Date Brightness Start Highest point End Pass type
(mag) Time Alt. Az. Time Alt. Az. Time Alt. Az.
06 Dec 5.1 05:31:54 10° NNE 05:36:25 31° E 05:40:54 10° SSE visible
06 Dec 3.4 16:45:41 10° SE 16:50:21 39° ENE 16:55:03 10° N visible
06 Dec 5.3 18:25:26 10° SSW 18:29:28 23° W 18:33:31 10° NW visible
07 Dec 6.1 04:56:44 10° ENE 04:59:19 14° E 05:01:54 10° ESE visible
07 Dec 3.8 17:47:33 10° S 17:52:30 53° W 17:57:28 10° NNW visible
08 Dec 3.9 05:57:00 10° NNE 06:02:01 56° E 06:06:59 10° S visible
08 Dec 2.9 17:10:42 10° SSE 17:15:44 69° ENE 17:20:48 10° N visible
08 Dec 6.0 18:52:54 10° WSW 18:55:13 13° W 18:57:33 10° WNW visible
09 Dec 5.5 05:20:55 10° NE 05:25:04 25° E 05:29:12 10° SSE visible
09 Dec 3.7 16:34:44 10° SE 16:39:09 31° ENE 16:43:35 10° N visible
09 Dec 4.9 18:13:42 10° SSW 18:18:06 30° W 18:22:33 10° NW visible
10 Dec 6.4 04:46:56 10° ENE 04:47:55 10° E 04:48:53 10° E visible
10 Dec 3.3 17:36:10 10° S 17:41:12 68° WSW 17:46:17 10° NNW visible
11 Dec 4.4 05:45:51 10° NNE 05:50:42 44° E 05:55:32 10° S visible
11 Dec 3.1 16:59:33 10° SSE 17:04:29 54° ENE 17:09:26 10° N visible
11 Dec 5.8 18:40:35 10° SW 18:43:49 17° W 18:47:04 10° NW visible
12 Dec 5.8 05:10:02 10° NE 05:13:42 20° E 05:17:20 10° SE visible
12 Dec 4.4 18:02:05 10° SSW 18:06:46 38° W 18:11:29 10° NNW visible
13 Dec 3.0 17:24:50 10° SSE 17:29:55 86° WSW 17:35:02 10° NNW visible
14 Dec 4.9 05:34:45 10° NNE 05:39:23 34° E 05:43:59 10° SSE visible
14 Dec 3.3 16:48:30 10° SE 16:53:16 42° ENE 16:58:02 10° N visible
14 Dec 5.4 18:28:36 10° SW 18:32:25 21° W 18:36:17 10° NW visible
15 Dec 6.0 04:59:21 10° NE 05:02:18 15° E 05:05:14 10° SE visible
15 Dec 4.0 17:50:33 10° S 17:55:26 48° W 18:00:22 10° NNW visible
